BST,Max TemperatureF,Mean TemperatureF,Min TemperatureF,Max Dew PointF,MeanDew PointF,Min DewpointF,Max Humidity, Mean Humidity, Min Humidity, Max Sea Level PressureIn, Mean Sea Level PressureIn, Min Sea Level PressureIn, Max VisibilityMiles, Mean VisibilityMiles, Min VisibilityMiles, Max Wind SpeedMPH, Mean Wind SpeedMPH, Max Gust SpeedMPH,PrecipitationIn, CloudCover, Events, WindDirDegrees
2012-9-1,73,64,55,57,51,43,82,67,35,30.39,30.30,30.24,17,7,4,16,7,,0.00,5,Rain,245
2012-9-2,65,60,54,61,56,52,94,86,70,30.30,30.26,30.24,17,7,2,12,9,,0.00,5,Rain,243
2012-9-3,76,66,57,61,54,46,94,66,30,30.33,30.29,30.24,16,7,4,6,4,,0.00,3,,295
2012-9-4,77,66,56,61,57,46,94,72,50,30.27,30.23,30.18,14,7,3,10,5,,0.00,4,,307
2012-9-5,69,60,51,48,45,41,82,56,31,30.42,30.33,30.27,12,8,6,12,6,,0.00,3,,15
2012-9-6,71,58,46,53,45,39,87,61,29,30.42,30.36,30.27,11,8,6,13,4,22,0.00,1,,240
2012-9-7,79,65,51,52,47,37,94,59,19,30.30,30.25,30.21,17,8,4,12,8,,0.00,,,252
2012-9-8,81,64,48,52,45,28,88,55,12,30.23,30.13,30.04,19,10,6,10,4,,0.00,,,227
2012-9-9,82,66,49,57,50,43,94,63,18,30.01,29.87,29.80,16,7,6,20,5,,0.00,2,,209
2012-9-10,70,66,61,60,57,54,88,75,59,29.86,29.83,29.80,19,7,5,22,13,34,0.00,5,Rain,218
2012-9-11,66,58,50,55,45,34,82,58,32,30.04,29.90,29.80,19,9,6,18,13,32,0.00,2,Rain,269
2012-9-12,66,55,44,52,46,41,93,70,44,30.04,29.97,29.89,19,8,6,17,9,29,0.08,3,Rain,260
2012-9-13,66,55,44,50,43,39,85,63,36,30.15,30.09,30.01,19,9,6,16,8,22,0.00,3,,278
2012-9-14,69,61,51,55,49,43,82,64,34,30.04,29.94,29.88,19,8,6,21,15,29,0.00,4,,274
2012-9-15,73,60,46,54,48,45,88,68,37,30.09,30.04,29.98,14,8,6,14,7,,0.00,2,,266
2012-9-16,66,60,55,54,51,48,94,72,47,30.01,29.92,29.86,19,7,6,17,9,22,0.00,6,,234
2012-9-17,67,61,55,54,49,41,94,68,32,29.95,29.90,29.86,19,7,6,17,10,29,0.00,3,Rain,247
2012-9-18,64,57,46,52,43,34,88,61,30,30.09,29.94,29.83,16,8,6,16,11,,0.00,2,Rain,280
2012-9-19,64,53,42,43,40,34,87,62,31,30.23,30.18,30.12,19,10,6,16,9,,0.00,2,,279
2012-9-20,64,56,47,47,45,42,87,67,39,30.22,30.14,30.09,19,9,6,15,7,,0.00,2,,226
2012-9-21,62,56,50,53,47,43,94,75,44,30.09,29.99,29.92,16,7,4,8,6,,0.01,3,Rain,268
2012-9-22,62,52,42,47,41,37,93,67,31,30.16,30.10,30.01,19,9,6,9,6,,0.00,1,Rain,49
2012-9-23,53,50,47,52,46,39,100,84,61,30.09,29.79,29.42,14,6,3,20,8,25,0.51,5,Rain,80
2012-9-24,60,56,51,59,51,46,100,86,57,29.39,29.21,29.09,19,5,1,24,11,34,0.31,5,Rain,183
2012-9-25,62,56,49,50,47,45,88,75,47,29.21,29.19,29.18,19,8,6,22,12,33,0.00,2,Rain,206
2012-9-26,60,54,49,54,50,46,94,85,67,29.50,29.30,29.18,19,8,6,14,8,,0.08,2,Rain,166
2012-9-27,63,57,51,51,48,45,94,77,43,29.92,29.73,29.50,19,7,5,13,6,,0.02,4,Rain,312
2012-9-28,64,56,47,54,49,45,94,82,57,29.95,29.91,29.89,19,8,6,17,9,,0.01,3,Rain,234
2012-9-29,62,54,46,48,43,37,94,70,32,30.18,30.06,29.95,17,8,6,15,8,,0.00,2,,282
2012-9-30,64,54,43,52,47,39,93,77,55,30.18,30.08,29.98,16,7,6,20,9,25,0.00,5,,231